Location: Ahstedt
(52.2048°N, 10.1060°E)
Time: 23:55:09
(UTC+00:00)

Cosmos 540 Rocket - Pass Details

Date: 20 April 2026
Orbit: 734 x 748 km, 74.1° (Epoch: 15 May)

Event Time Altitude Azimuth Distance (km) Brightness Sun altitude
Exits shadow 00:50:23 - 128° (SE) 2,386 5.9 -23.3°
Reaches altitude 10° 00:51:00 10° 122° (ESE) 2,261 5.9 -23.3°
Maximum altitude 00:53:28 14° 93° (E) 2,022 5.9 -23.1°
Drops below altitude 10° 00:55:56 10° 64° (ENE) 2,272 6.6 -23.0°
Sets 00:59:28 0° 39° (NE) 3,204 8.1 -22.7°
